owner,sensor,date,latitude,longitude,vertical_datum,mass_concentration_of_oxygen_in_sea_water,qcFlag 
SCCF RECON,ioos:station:SCCF:16:1,2010-12-01T00:00:00Z,26.4345,-81.9647,2.918,6.56,1111122 
SCCF RECON,ioos:station:SCCF:16:1,2010-12-01T01:00:00Z,26.4345,-81.9647,2.964,6.52,1111122 
SCCF RECON,ioos:station:SCCF:16:1,2010-12-01T02:00:00Z,26.4345,-81.9647,2.926,6.48,1111122 
SCCF RECON,ioos:station:SCCF:16:1,2010-12-01T03:00:00Z,26.4345,-81.9647,2.836,6.43,1111122 
SCCF RECON,ioos:station:SCCF:16:1,2010-12-01T04:00:00Z,26.4345,-81.9647,2.7,6.34,1111122 
SCCF RECON,ioos:station:SCCF:16:1,2010-12-01T05:00:00Z,26.4345,-81.9647,2.52,6.29,1111122 
SCCF RECON,ioos:station:SCCF:16:1,2010-12-01T06:00:00Z,26.4345,-81.9647,2.304,6.21,1111122 
SCCF RECON,ioos:station:SCCF:16:1,2010-12-01T07:00:00Z,26.4345,-81.9647,2.179,6.1,1111122 
SCCF RECON,ioos:station:SCCF:16:1,2010-12-01T08:00:00Z,26.4345,-81.9647,2.116,5.98,1111122 
SCCF RECON,ioos:station:SCCF:16:1,2010-12-01T09:00:00Z,26.4345,-81.9647,2.306,5.91,1111122 
SCCF RECON,ioos:station:SCCF:16:1,2010-12-01T10:00:00Z,26.4345,-81.9647,2.443,6.04,1111122 
SCCF RECON,ioos:station:SCCF:16:1,2010-12-01T11:00:00Z,26.4345,-81.9647,2.539,6.33,1111122 
SCCF RECON,ioos:station:SCCF:16:1,2010-12-01T12:00:00Z,26.4345,-81.9647,2.689,6.37,1111122 
SCCF RECON,ioos:station:SCCF:16:1,2010-12-01T13:00:00Z,26.4345,-81.9647,2.586,6.3,1111122 
SCCF RECON,ioos:station:SCCF:16:1,2010-12-01T14:00:00Z,26.4345,-81.9647,2.484,6.27,1111122 
SCCF RECON,ioos:station:SCCF:16:1,2010-12-01T15:00:00Z,26.4345,-81.9647,2.551,6.16,1111122 
SCCF RECON,ioos:station:SCCF:16:1,2010-12-01T16:00:00Z,26.4345,-81.9647,2.562,6.22,1111122 
SCCF RECON,ioos:station:SCCF:16:1,2010-12-01T17:00:00Z,26.4345,-81.9647,2.517,6.26,1111122 
SCCF RECON,ioos:station:SCCF:16:1,2010-12-01T18:00:00Z,26.4345,-81.9647,2.351,6.26,1111122 
SCCF RECON,ioos:station:SCCF:16:1,2010-12-01T19:00:00Z,26.4345,-81.9647,2.121,6.34,1111122 
SCCF RECON,ioos:station:SCCF:16:1,2010-12-01T20:00:00Z,26.4345,-81.9647,1.998,6.5,1111122 
SCCF RECON,ioos:station:SCCF:16:1,2010-12-01T21:00:00Z,26.4345,-81.9647,2.101,6.29,1111122 
SCCF RECON,ioos:station:SCCF:16:1,2010-12-01T22:00:00Z,26.4345,-81.9647,2.336,6.3,1111122 
SCCF RECON,ioos:station:SCCF:16:1,2010-12-01T23:00:00Z,26.4345,-81.9647,2.514,6.34,1111122 
SCCF RECON,ioos:station:SCCF:16:1,2010-12-02T00:00:00Z,26.4345,-81.9647,2.58,6.43,1111122 
SCCF RECON,ioos:station:SCCF:16:1,2010-12-02T01:00:00Z,26.4345,-81.9647,2.633,6.5,1111122 
SCCF RECON,ioos:station:SCCF:16:1,2010-12-02T02:00:00Z,26.4345,-81.9647,2.628,6.53,1111122 
SCCF RECON,ioos:station:SCCF:16:1,2010-12-02T03:00:00Z,26.4345,-81.9647,2.514,6.5,1111122 
SCCF RECON,ioos:station:SCCF:16:1,2010-12-02T04:00:00Z,26.4345,-81.9647,2.406,6.44,1111122 
SCCF RECON,ioos:station:SCCF:16:1,2010-12-02T05:00:00Z,26.4345,-81.9647,2.237,6.34,1111122 
SCCF RECON,ioos:station:SCCF:16:1,2010-12-02T06:00:00Z,26.4345,-81.9647,2.095,6.16,1111122 
SCCF RECON,ioos:station:SCCF:16:1,2010-12-02T07:00:00Z,26.4345,-81.9647,1.888,6.29,1111122 
SCCF RECON,ioos:station:SCCF:16:1,2010-12-02T08:00:00Z,26.4345,-81.9647,1.735,6.33,1111122 
SCCF RECON,ioos:station:SCCF:16:1,2010-12-02T09:00:00Z,26.4345,-81.9647,1.714,6.39,1111122 
SCCF RECON,ioos:station:SCCF:16:1,2010-12-02T10:00:00Z,26.4345,-81.9647,1.849,6.42,1111122 
SCCF RECON,ioos:station:SCCF:16:1,2010-12-02T11:00:00Z,26.4345,-81.9647,2.031,6.42,1111122 
SCCF RECON,ioos:station:SCCF:16:1,2010-12-02T12:00:00Z,26.4345,-81.9647,2.159,6.49,1111122 
SCCF RECON,ioos:station:SCCF:16:1,2010-12-02T13:00:00Z,26.4345,-81.9647,2.289,6.51,1111122 
SCCF RECON,ioos:station:SCCF:16:1,2010-12-02T14:00:00Z,26.4345,-81.9647,2.44,6.49,1111122 
SCCF RECON,ioos:station:SCCF:16:1,2010-12-02T15:00:00Z,26.4345,-81.9647,2.529,6.54,1111122 
SCCF RECON,ioos:station:SCCF:16:1,2010-12-02T16:00:00Z,26.4345,-81.9647,2.533,6.58,1111122 
SCCF RECON,ioos:station:SCCF:16:1,2010-12-02T17:00:00Z,26.4345,-81.9647,2.454,6.66,1111122 
SCCF RECON,ioos:station:SCCF:16:1,2010-12-02T18:00:00Z,26.4345,-81.9647,2.401,6.72,1111122 
SCCF RECON,ioos:station:SCCF:16:1,2010-12-02T19:00:00Z,26.4345,-81.9647,2.384,6.81,1111122 
SCCF RECON,ioos:station:SCCF:16:1,2010-12-02T20:00:00Z,26.4345,-81.9647,2.341,6.87,1111122 
SCCF RECON,ioos:station:SCCF:16:1,2010-12-02T21:00:00Z,26.4345,-81.9647,2.388,6.9,1111122 
SCCF RECON,ioos:station:SCCF:16:1,2010-12-02T22:00:00Z,26.4345,-81.9647,2.469,7.0,1111122 
SCCF RECON,ioos:station:SCCF:16:1,2010-12-02T23:00:00Z,26.4345,-81.9647,2.586,7.11,1111122 
SCCF RECON,ioos:station:SCCF:16:1,2010-12-03T00:00:00Z,26.4345,-81.9647,2.696,7.19,1111122 
SCCF RECON,ioos:station:SCCF:16:1,2010-12-03T01:00:00Z,26.4345,-81.9647,2.773,6.96,1111122 
SCCF RECON,ioos:station:SCCF:16:1,2010-12-03T02:00:00Z,26.4345,-81.9647,2.762,6.87,1111122 
SCCF RECON,ioos:station:SCCF:16:1,2010-12-03T03:00:00Z,26.4345,-81.9647,2.765,6.83,1111122 
SCCF RECON,ioos:station:SCCF:16:1,2010-12-03T04:00:00Z,26.4345,-81.9647,2.65,6.9,1111122 
SCCF RECON,ioos:station:SCCF:16:1,2010-12-03T05:00:00Z,26.4345,-81.9647,2.422,6.66,1111122 
SCCF RECON,ioos:station:SCCF:16:1,2010-12-03T06:00:00Z,26.4345,-81.9647,2.185,6.69,1111122 
SCCF RECON,ioos:station:SCCF:16:1,2010-12-03T07:00:00Z,26.4345,-81.9647,2.018,6.51,1111122 
SCCF RECON,ioos:station:SCCF:16:1,2010-12-03T08:00:00Z,26.4345,-81.9647,1.85,6.51,1111122 
SCCF RECON,ioos:station:SCCF:16:1,2010-12-03T09:00:00Z,26.4345,-81.9647,1.717,6.79,1111122 
SCCF RECON,ioos:station:SCCF:16:1,2010-12-03T10:00:00Z,26.4345,-81.9647,1.736,6.66,1111122 
SCCF RECON,ioos:station:SCCF:16:1,2010-12-03T11:00:00Z,26.4345,-81.9647,1.913,6.58,1111122 
SCCF RECON,ioos:station:SCCF:16:1,2010-12-03T12:00:00Z,26.4345,-81.9647,2.087,6.62,1111122 
SCCF RECON,ioos:station:SCCF:16:1,2010-12-03T13:00:00Z,26.4345,-81.9647,2.246,6.87,1111122 
SCCF RECON,ioos:station:SCCF:16:1,2010-12-03T14:00:00Z,26.4345,-81.9647,2.379,6.92,1111122 
SCCF RECON,ioos:station:SCCF:16:1,2010-12-03T15:00:00Z,26.4345,-81.9647,2.523,6.83,1111122 
SCCF RECON,ioos:station:SCCF:16:1,2010-12-03T16:00:00Z,26.4345,-81.9647,2.597,6.97,1111122 
SCCF RECON,ioos:station:SCCF:16:1,2010-12-03T17:00:00Z,26.4345,-81.9647,2.535,7.03,1111122 
SCCF RECON,ioos:station:SCCF:16:1,2010-12-03T18:00:00Z,26.4345,-81.9647,2.484,7.11,1111122 
SCCF RECON,ioos:station:SCCF:16:1,2010-12-03T19:00:00Z,26.4345,-81.9647,2.441,7.17,1111122 
SCCF RECON,ioos:station:SCCF:16:1,2010-12-03T20:00:00Z,26.4345,-81.9647,2.411,7.26,1111122 
SCCF RECON,ioos:station:SCCF:16:1,2010-12-03T21:00:00Z,26.4345,-81.9647,2.442,7.31,1111122 
SCCF RECON,ioos:station:SCCF:16:1,2010-12-03T22:00:00Z,26.4345,-81.9647,2.484,7.25,1111122 
SCCF RECON,ioos:station:SCCF:16:1,2010-12-03T23:00:00Z,26.4345,-81.9647,2.563,7.32,1111122 
SCCF RECON,ioos:station:SCCF:16:1,2010-12-04T00:00:00Z,26.4345,-81.9647,2.698,7.41,1111122 
SCCF RECON,ioos:station:SCCF:16:1,2010-12-04T01:00:00Z,26.4345,-81.9647,2.791,7.5,1111122 
SCCF RECON,ioos:station:SCCF:16:1,2010-12-04T02:00:00Z,26.4345,-81.9647,2.843,7.35,1111122 
SCCF RECON,ioos:station:SCCF:16:1,2010-12-04T03:00:00Z,26.4345,-81.9647,2.875,7.4,1111122 
SCCF RECON,ioos:station:SCCF:16:1,2010-12-04T04:00:00Z,26.4345,-81.9647,2.853,7.26,1111122 
SCCF RECON,ioos:station:SCCF:16:1,2010-12-04T05:00:00Z,26.4345,-81.9647,2.718,7.07,1111122 
SCCF RECON,ioos:station:SCCF:16:1,2010-12-04T06:00:00Z,26.4345,-81.9647,2.511,6.91,1111122 
SCCF RECON,ioos:station:SCCF:16:1,2010-12-04T07:00:00Z,26.4345,-81.9647,2.309,6.88,1111122 
SCCF RECON,ioos:station:SCCF:16:1,2010-12-04T08:00:00Z,26.4345,-81.9647,2.099,6.86,1111122 
SCCF RECON,ioos:station:SCCF:16:1,2010-12-04T09:00:00Z,26.4345,-81.9647,1.89,6.75,1111122 
SCCF RECON,ioos:station:SCCF:16:1,2010-12-04T10:00:00Z,26.4345,-81.9647,1.778,6.82,1111122 
SCCF RECON,ioos:station:SCCF:16:1,2010-12-04T11:00:00Z,26.4345,-81.9647,1.908,6.78,1111122 
SCCF RECON,ioos:station:SCCF:16:1,2010-12-04T12:00:00Z,26.4345,-81.9647,2.089,6.91,1111122 
SCCF RECON,ioos:station:SCCF:16:1,2010-12-04T13:00:00Z,26.4345,-81.9647,2.309,7.01,1111122 
SCCF RECON,ioos:station:SCCF:16:1,2010-12-04T14:00:00Z,26.4345,-81.9647,2.466,7.07,1111122 
SCCF RECON,ioos:station:SCCF:16:1,2010-12-04T15:00:00Z,26.4345,-81.9647,2.595,6.98,1111122 
SCCF RECON,ioos:station:SCCF:16:1,2010-12-04T16:00:00Z,26.4345,-81.9647,2.708,7.05,1111122 
SCCF RECON,ioos:station:SCCF:16:1,2010-12-04T17:00:00Z,26.4345,-81.9647,2.748,7.1,1111122 
SCCF RECON,ioos:station:SCCF:16:1,2010-12-04T18:00:00Z,26.4345,-81.9647,2.719,7.16,1111122 
SCCF RECON,ioos:station:SCCF:16:1,2010-12-04T19:00:00Z,26.4345,-81.9647,2.64,7.22,1111122 
SCCF RECON,ioos:station:SCCF:16:1,2010-12-04T20:00:00Z,26.4345,-81.9647,2.569,7.09,1111122 
SCCF RECON,ioos:station:SCCF:16:1,2010-12-04T21:00:00Z,26.4345,-81.9647,2.54,7.28,1111122 
SCCF RECON,ioos:station:SCCF:16:1,2010-12-04T22:00:00Z,26.4345,-81.9647,2.539,7.35,1111122 
SCCF RECON,ioos:station:SCCF:16:1,2010-12-04T23:00:00Z,26.4345,-81.9647,2.565,7.38,1111122 
SCCF RECON,ioos:station:SCCF:16:1,2010-12-05T00:00:00Z,26.4345,-81.9647,2.684,7.31,1111122 
SCCF RECON,ioos:station:SCCF:16:1,2010-12-05T01:00:00Z,26.4345,-81.9647,2.828,7.43,1111122 
SCCF RECON,ioos:station:SCCF:16:1,2010-12-05T02:00:00Z,26.4345,-81.9647,2.921,7.42,1111122 
SCCF RECON,ioos:station:SCCF:16:1,2010-12-05T03:00:00Z,26.4345,-81.9647,2.988,7.16,1111122 
SCCF RECON,ioos:station:SCCF:16:1,2010-12-05T04:00:00Z,26.4345,-81.9647,3.023,7.02,1111122 
SCCF RECON,ioos:station:SCCF:16:1,2010-12-05T05:00:00Z,26.4345,-81.9647,2.942,7.03,1111122 
SCCF RECON,ioos:station:SCCF:16:1,2010-12-05T06:00:00Z,26.4345,-81.9647,2.78,6.96,1111122 
SCCF RECON,ioos:station:SCCF:16:1,2010-12-05T07:00:00Z,26.4345,-81.9647,2.556,6.96,1111122 
SCCF RECON,ioos:station:SCCF:16:1,2010-12-05T08:00:00Z,26.4345,-81.9647,2.329,6.96,1111122 
SCCF RECON,ioos:station:SCCF:16:1,2010-12-05T09:00:00Z,26.4345,-81.9647,2.102,6.92,1111122 
SCCF RECON,ioos:station:SCCF:16:1,2010-12-05T10:00:00Z,26.4345,-81.9647,1.905,7.01,1111122 
SCCF RECON,ioos:station:SCCF:16:1,2010-12-05T11:00:00Z,26.4345,-81.9647,1.837,6.94,1111122 
SCCF RECON,ioos:station:SCCF:16:1,2010-12-05T12:00:00Z,26.4345,-81.9647,1.971,6.9,1111122 
SCCF RECON,ioos:station:SCCF:16:1,2010-12-05T13:00:00Z,26.4345,-81.9647,2.196,6.98,1111122 
SCCF RECON,ioos:station:SCCF:16:1,2010-12-05T14:00:00Z,26.4345,-81.9647,2.418,6.98,1111122 
SCCF RECON,ioos:station:SCCF:16:1,2010-12-05T15:00:00Z,26.4345,-81.9647,2.545,7.23,1111122 
SCCF RECON,ioos:station:SCCF:16:1,2010-12-05T16:00:00Z,26.4345,-81.9647,2.666,7.3,1111122 
SCCF RECON,ioos:station:SCCF:16:1,2010-12-05T17:00:00Z,26.4345,-81.9647,2.752,7.2,1111122 
SCCF RECON,ioos:station:SCCF:16:1,2010-12-05T18:00:00Z,26.4345,-81.9647,2.772,7.13,1111122 
SCCF RECON,ioos:station:SCCF:16:1,2010-12-05T19:00:00Z,26.4345,-81.9647,2.728,7.2,1111122 
SCCF RECON,ioos:station:SCCF:16:1,2010-12-05T20:00:00Z,26.4345,-81.9647,2.652,7.26,1111122 
SCCF RECON,ioos:station:SCCF:16:1,2010-12-05T21:00:00Z,26.4345,-81.9647,2.557,7.27,1111122 
SCCF RECON,ioos:station:SCCF:16:1,2010-12-05T22:00:00Z,26.4345,-81.9647,2.544,7.12,1111122 
SCCF RECON,ioos:station:SCCF:16:1,2010-12-05T23:00:00Z,26.4345,-81.9647,2.548,7.04,1111122 
SCCF RECON,ioos:station:SCCF:16:1,2010-12-06T00:00:00Z,26.4345,-81.9647,2.609,7.09,1111122 
SCCF RECON,ioos:station:SCCF:16:1,2010-12-06T01:00:00Z,26.4345,-81.9647,2.758,7.26,1111122 
SCCF RECON,ioos:station:SCCF:16:1,2010-12-06T02:00:00Z,26.4345,-81.9647,2.885,7.22,1111122 
SCCF RECON,ioos:station:SCCF:16:1,2010-12-06T03:00:00Z,26.4345,-81.9647,2.966,7.24,1111122 
SCCF RECON,ioos:station:SCCF:16:1,2010-12-06T04:00:00Z,26.4345,-81.9647,2.988,7.31,1111122 
SCCF RECON,ioos:station:SCCF:16:1,2010-12-06T05:00:00Z,26.4345,-81.9647,2.953,7.25,1111122 
SCCF RECON,ioos:station:SCCF:16:1,2010-12-06T06:00:00Z,26.4345,-81.9647,2.816,7.12,1111122 
SCCF RECON,ioos:station:SCCF:16:1,2010-12-06T07:00:00Z,26.4345,-81.9647,2.609,7.03,1111122 
SCCF RECON,ioos:station:SCCF:16:1,2010-12-06T08:00:00Z,26.4345,-81.9647,2.331,6.92,1111122 
SCCF RECON,ioos:station:SCCF:16:1,2010-12-06T09:00:00Z,26.4345,-81.9647,2.059,7.05,1111122 
SCCF RECON,ioos:station:SCCF:16:1,2010-12-06T10:00:00Z,26.4345,-81.9647,1.881,7.04,1111122 
SCCF RECON,ioos:station:SCCF:16:1,2010-12-06T11:00:00Z,26.4345,-81.9647,1.722,7.06,1111122 
SCCF RECON,ioos:station:SCCF:16:1,2010-12-06T12:00:00Z,26.4345,-81.9647,1.706,7.09,1111122 
SCCF RECON,ioos:station:SCCF:16:1,2010-12-06T13:00:00Z,26.4345,-81.9647,1.882,7.16,1111122 
SCCF RECON,ioos:station:SCCF:16:1,2010-12-06T14:00:00Z,26.4345,-81.9647,2.125,7.18,1111122 
SCCF RECON,ioos:station:SCCF:16:1,2010-12-06T15:00:00Z,26.4345,-81.9647,2.317,7.19,1111122 
SCCF RECON,ioos:station:SCCF:16:1,2010-12-06T16:00:00Z,26.4345,-81.9647,2.433,7.33,1111122 
SCCF RECON,ioos:station:SCCF:16:1,2010-12-06T17:00:00Z,26.4345,-81.9647,2.51,7.44,1111122 
SCCF RECON,ioos:station:SCCF:16:1,2010-12-06T18:00:00Z,26.4345,-81.9647,2.545,7.44,1111122 
SCCF RECON,ioos:station:SCCF:16:1,2010-12-06T19:00:00Z,26.4345,-81.9647,2.53,7.38,1111122 
SCCF RECON,ioos:station:SCCF:16:1,2010-12-06T20:00:00Z,26.4345,-81.9647,2.484,7.4,1111122 
SCCF RECON,ioos:station:SCCF:16:1,2010-12-06T21:00:00Z,26.4345,-81.9647,2.39,7.45,1111122 
SCCF RECON,ioos:station:SCCF:16:1,2010-12-06T22:00:00Z,26.4345,-81.9647,2.367,7.54,1111122 
SCCF RECON,ioos:station:SCCF:16:1,2010-12-06T23:00:00Z,26.4345,-81.9647,2.35,7.48,1111122 
SCCF RECON,ioos:station:SCCF:16:1,2010-12-07T00:00:00Z,26.4345,-81.9647,2.411,7.43,1111122 
SCCF RECON,ioos:station:SCCF:16:1,2010-12-07T01:00:00Z,26.4345,-81.9647,2.488,7.42,1111122 
SCCF RECON,ioos:station:SCCF:16:1,2010-12-07T02:00:00Z,26.4345,-81.9647,2.624,7.44,1111122 
SCCF RECON,ioos:station:SCCF:16:1,2010-12-07T03:00:00Z,26.4345,-81.9647,2.765,7.46,1111122 
SCCF RECON,ioos:station:SCCF:16:1,2010-12-07T04:00:00Z,26.4345,-81.9647,2.859,7.52,1111122 
SCCF RECON,ioos:station:SCCF:16:1,2010-12-07T05:00:00Z,26.4345,-81.9647,2.859,7.55,1111122 
SCCF RECON,ioos:station:SCCF:16:1,2010-12-07T06:00:00Z,26.4345,-81.9647,2.806,7.5,1111122 
SCCF RECON,ioos:station:SCCF:16:1,2010-12-07T07:00:00Z,26.4345,-81.9647,2.659,7.43,1111122 
SCCF RECON,ioos:station:SCCF:16:1,2010-12-07T08:00:00Z,26.4345,-81.9647,2.445,7.32,1111122 
SCCF RECON,ioos:station:SCCF:16:1,2010-12-07T09:00:00Z,26.4345,-81.9647,2.248,7.2,1111122 
SCCF RECON,ioos:station:SCCF:16:1,2010-12-07T10:00:00Z,26.4345,-81.9647,2.054,7.22,1111122 
SCCF RECON,ioos:station:SCCF:16:1,2010-12-07T11:00:00Z,26.4345,-81.9647,1.879,7.27,1111122 
SCCF RECON,ioos:station:SCCF:16:1,2010-12-07T12:00:00Z,26.4345,-81.9647,1.796,7.33,1111122 
SCCF RECON,ioos:station:SCCF:16:1,2010-12-07T13:00:00Z,26.4345,-81.9647,1.828,7.23,1111122 
SCCF RECON,ioos:station:SCCF:16:1,2010-12-07T14:00:00Z,26.4345,-81.9647,1.999,7.24,1111122 
SCCF RECON,ioos:station:SCCF:16:1,2010-12-07T15:00:00Z,26.4345,-81.9647,2.224,7.34,1111122 
SCCF RECON,ioos:station:SCCF:16:1,2010-12-07T16:00:00Z,26.4345,-81.9647,2.391,7.52,1111122 
SCCF RECON,ioos:station:SCCF:16:1,2010-12-07T17:00:00Z,26.4345,-81.9647,2.481,7.57,1111122 
SCCF RECON,ioos:station:SCCF:16:1,2010-12-07T18:00:00Z,26.4345,-81.9647,2.556,7.45,1111122 
SCCF RECON,ioos:station:SCCF:16:1,2010-12-07T19:00:00Z,26.4345,-81.9647,2.568,7.62,1111122 
SCCF RECON,ioos:station:SCCF:16:1,2010-12-07T20:00:00Z,26.4345,-81.9647,2.561,7.53,1111122 
SCCF RECON,ioos:station:SCCF:16:1,2010-12-07T21:00:00Z,26.4345,-81.9647,2.506,7.58,1111122 
SCCF RECON,ioos:station:SCCF:16:1,2010-12-07T22:00:00Z,26.4345,-81.9647,2.464,7.69,1111122 
SCCF RECON,ioos:station:SCCF:16:1,2010-12-07T23:00:00Z,26.4345,-81.9647,2.445,7.63,1111122 
SCCF RECON,ioos:station:SCCF:16:1,2010-12-08T00:00:00Z,26.4345,-81.9647,2.426,7.62,1111122 
SCCF RECON,ioos:station:SCCF:16:1,2010-12-08T01:00:00Z,26.4345,-81.9647,2.446,7.55,1111122 
SCCF RECON,ioos:station:SCCF:16:1,2010-12-08T02:00:00Z,26.4345,-81.9647,2.548,7.53,1111122 
SCCF RECON,ioos:station:SCCF:16:1,2010-12-08T03:00:00Z,26.4345,-81.9647,2.715,7.61,1111122 
SCCF RECON,ioos:station:SCCF:16:1,2010-12-08T04:00:00Z,26.4345,-81.9647,2.865,7.71,1111122 
SCCF RECON,ioos:station:SCCF:16:1,2010-12-08T05:00:00Z,26.4345,-81.9647,2.925,7.62,1111122 
SCCF RECON,ioos:station:SCCF:16:1,2010-12-08T06:00:00Z,26.4345,-81.9647,2.894,7.49,1111122 
SCCF RECON,ioos:station:SCCF:16:1,2010-12-08T07:00:00Z,26.4345,-81.9647,2.806,7.5,1111122 
SCCF RECON,ioos:station:SCCF:16:1,2010-12-08T08:00:00Z,26.4345,-81.9647,2.669,7.49,1111122 
SCCF RECON,ioos:station:SCCF:16:1,2010-12-08T09:00:00Z,26.4345,-81.9647,2.485,7.4,1111122 
SCCF RECON,ioos:station:SCCF:16:1,2010-12-08T10:00:00Z,26.4345,-81.9647,2.283,7.37,1111122 
SCCF RECON,ioos:station:SCCF:16:1,2010-12-08T11:00:00Z,26.4345,-81.9647,2.093,7.36,1111122 
SCCF RECON,ioos:station:SCCF:16:1,2010-12-08T12:00:00Z,26.4345,-81.9647,1.935,7.33,1111122 
SCCF RECON,ioos:station:SCCF:16:1,2010-12-08T13:00:00Z,26.4345,-81.9647,1.877,7.4,1111122 
SCCF RECON,ioos:station:SCCF:16:1,2010-12-08T14:00:00Z,26.4345,-81.9647,1.947,7.46,1111122 
SCCF RECON,ioos:station:SCCF:16:1,2010-12-08T15:00:00Z,26.4345,-81.9647,2.203,7.5,1111122 
SCCF RECON,ioos:station:SCCF:16:1,2010-12-08T16:00:00Z,26.4345,-81.9647,2.436,7.58,1111122 
SCCF RECON,ioos:station:SCCF:16:1,2010-12-08T17:00:00Z,26.4345,-81.9647,2.573,7.62,1111122 
SCCF RECON,ioos:station:SCCF:16:1,2010-12-08T18:00:00Z,26.4345,-81.9647,2.615,7.66,1111122 
SCCF RECON,ioos:station:SCCF:16:1,2010-12-08T19:00:00Z,26.4345,-81.9647,2.658,7.6,1111122 
SCCF RECON,ioos:station:SCCF:16:1,2010-12-08T20:00:00Z,26.4345,-81.9647,2.71,7.75,1111122 
SCCF RECON,ioos:station:SCCF:16:1,2010-12-08T21:00:00Z,26.4345,-81.9647,2.689,7.81,1111122 
SCCF RECON,ioos:station:SCCF:16:1,2010-12-08T22:00:00Z,26.4345,-81.9647,2.567,7.78,1111122 
SCCF RECON,ioos:station:SCCF:16:1,2010-12-08T23:00:00Z,26.4345,-81.9647,2.515,7.69,1111122 
SCCF RECON,ioos:station:SCCF:16:1,2010-12-09T00:00:00Z,26.4345,-81.9647,2.487,7.61,1111122 
SCCF RECON,ioos:station:SCCF:16:1,2010-12-09T01:00:00Z,26.4345,-81.9647,2.523,7.68,1111122 
SCCF RECON,ioos:station:SCCF:16:1,2010-12-09T02:00:00Z,26.4345,-81.9647,2.591,7.73,1111122 
SCCF RECON,ioos:station:SCCF:16:1,2010-12-09T03:00:00Z,26.4345,-81.9647,2.707,7.8,1111122 
SCCF RECON,ioos:station:SCCF:16:1,2010-12-09T04:00:00Z,26.4345,-81.9647,2.828,7.75,1111122 
SCCF RECON,ioos:station:SCCF:16:1,2010-12-09T05:00:00Z,26.4345,-81.9647,2.922,7.67,1111122 
SCCF RECON,ioos:station:SCCF:16:1,2010-12-09T06:00:00Z,26.4345,-81.9647,2.902,7.62,1111122 
SCCF RECON,ioos:station:SCCF:16:1,2010-12-09T07:00:00Z,26.4345,-81.9647,2.825,7.64,1111122 
SCCF RECON,ioos:station:SCCF:16:1,2010-12-09T08:00:00Z,26.4345,-81.9647,2.741,7.56,1111122 
SCCF RECON,ioos:station:SCCF:16:1,2010-12-09T09:00:00Z,26.4345,-81.9647,2.472,7.49,1111122 
SCCF RECON,ioos:station:SCCF:16:1,2010-12-09T10:00:00Z,26.4345,-81.9647,2.448,7.41,1111122 
SCCF RECON,ioos:station:SCCF:16:1,2010-12-09T11:00:00Z,26.4345,-81.9647,2.254,7.42,1111122 
SCCF RECON,ioos:station:SCCF:16:1,2010-12-09T12:00:00Z,26.4345,-81.9647,1.955,7.47,1111122 
SCCF RECON,ioos:station:SCCF:16:1,2010-12-09T13:00:00Z,26.4345,-81.9647,1.895,7.55,1111122 
SCCF RECON,ioos:station:SCCF:16:1,2010-12-09T14:00:00Z,26.4345,-81.9647,1.806,7.59,1111122 
SCCF RECON,ioos:station:SCCF:16:1,2010-12-09T15:00:00Z,26.4345,-81.9647,1.992,7.56,1111122 
SCCF RECON,ioos:station:SCCF:16:1,2010-12-09T16:00:00Z,26.4345,-81.9647,2.183,7.55,1111122 
SCCF RECON,ioos:station:SCCF:16:1,2010-12-09T17:00:00Z,26.4345,-81.9647,2.368,7.65,1111122 
SCCF RECON,ioos:station:SCCF:16:1,2010-12-09T18:00:00Z,26.4345,-81.9647,2.51,7.73,1111122 
SCCF RECON,ioos:station:SCCF:16:1,2010-12-09T19:00:00Z,26.4345,-81.9647,2.526,7.72,1111122 
SCCF RECON,ioos:station:SCCF:16:1,2010-12-09T20:00:00Z,26.4345,-81.9647,2.57,7.69,1111122 
SCCF RECON,ioos:station:SCCF:16:1,2010-12-09T21:00:00Z,26.4345,-81.9647,2.589,7.68,1111122 
SCCF RECON,ioos:station:SCCF:16:1,2010-12-09T22:00:00Z,26.4345,-81.9647,2.551,7.72,1111122 
SCCF RECON,ioos:station:SCCF:16:1,2010-12-09T23:00:00Z,26.4345,-81.9647,2.472,7.66,1111122 
SCCF RECON,ioos:station:SCCF:16:1,2010-12-10T00:00:00Z,26.4345,-81.9647,2.417,7.62,1111122 
SCCF RECON,ioos:station:SCCF:16:1,2010-12-10T01:00:00Z,26.4345,-81.9647,2.402,7.67,1111122 
SCCF RECON,ioos:station:SCCF:16:1,2010-12-10T02:00:00Z,26.4345,-81.9647,2.366,7.68,1111122 
SCCF RECON,ioos:station:SCCF:16:1,2010-12-10T03:00:00Z,26.4345,-81.9647,2.418,7.75,1111122 
SCCF RECON,ioos:station:SCCF:16:1,2010-12-10T04:00:00Z,26.4345,-81.9647,2.489,7.73,1111122 
SCCF RECON,ioos:station:SCCF:16:1,2010-12-10T05:00:00Z,26.4345,-81.9647,2.594,7.76,1111122 
SCCF RECON,ioos:station:SCCF:16:1,2010-12-10T06:00:00Z,26.4345,-81.9647,2.664,7.76,1111122 
SCCF RECON,ioos:station:SCCF:16:1,2010-12-10T07:00:00Z,26.4345,-81.9647,2.695,7.74,1111122 
SCCF RECON,ioos:station:SCCF:16:1,2010-12-10T08:00:00Z,26.4345,-81.9647,2.665,7.68,1111122 
SCCF RECON,ioos:station:SCCF:16:1,2010-12-10T09:00:00Z,26.4345,-81.9647,2.595,7.67,1111122 
SCCF RECON,ioos:station:SCCF:16:1,2010-12-10T10:00:00Z,26.4345,-81.9647,2.494,7.62,1111122 
SCCF RECON,ioos:station:SCCF:16:1,2010-12-10T11:00:00Z,26.4345,-81.9647,2.361,7.65,1111122 
SCCF RECON,ioos:station:SCCF:16:1,2010-12-10T12:00:00Z,26.4345,-81.9647,2.249,7.54,1111122 
SCCF RECON,ioos:station:SCCF:16:1,2010-12-10T13:00:00Z,26.4345,-81.9647,2.144,7.59,1111122 
SCCF RECON,ioos:station:SCCF:16:1,2010-12-10T14:00:00Z,26.4345,-81.9647,2.083,7.64,1111122 
SCCF RECON,ioos:station:SCCF:16:1,2010-12-10T15:00:00Z,26.4345,-81.9647,2.119,7.67,1111122 
SCCF RECON,ioos:station:SCCF:16:1,2010-12-10T16:00:00Z,26.4345,-81.9647,2.243,7.77,1111122 
SCCF RECON,ioos:station:SCCF:16:1,2010-12-10T17:00:00Z,26.4345,-81.9647,2.374,7.8,1111122 
SCCF RECON,ioos:station:SCCF:16:1,2010-12-10T18:00:00Z,26.4345,-81.9647,2.501,7.9,1111122 
SCCF RECON,ioos:station:SCCF:16:1,2010-12-10T19:00:00Z,26.4345,-81.9647,2.603,7.92,1111122 
SCCF RECON,ioos:station:SCCF:16:1,2010-12-10T20:00:00Z,26.4345,-81.9647,2.625,7.88,1111122 
SCCF RECON,ioos:station:SCCF:16:1,2010-12-10T21:00:00Z,26.4345,-81.9647,2.667,7.93,1111122 
SCCF RECON,ioos:station:SCCF:16:1,2010-12-10T22:00:00Z,26.4345,-81.9647,2.671,7.91,1111122 
SCCF RECON,ioos:station:SCCF:16:1,2010-12-10T23:00:00Z,26.4345,-81.9647,2.609,7.86,1111122 
SCCF RECON,ioos:station:SCCF:16:1,2010-12-11T00:00:00Z,26.4345,-81.9647,2.536,7.78,1111122 
SCCF RECON,ioos:station:SCCF:16:1,2010-12-11T01:00:00Z,26.4345,-81.9647,2.471,7.78,1111122 
SCCF RECON,ioos:station:SCCF:16:1,2010-12-11T02:00:00Z,26.4345,-81.9647,2.428,7.8,1111122 
SCCF RECON,ioos:station:SCCF:16:1,2010-12-11T03:00:00Z,26.4345,-81.9647,2.437,7.79,1111122 
SCCF RECON,ioos:station:SCCF:16:1,2010-12-11T04:00:00Z,26.4345,-81.9647,2.483,7.8,1111122 
SCCF RECON,ioos:station:SCCF:16:1,2010-12-11T05:00:00Z,26.4345,-81.9647,2.566,7.85,1111122 
SCCF RECON,ioos:station:SCCF:16:1,2010-12-11T06:00:00Z,26.4345,-81.9647,2.632,7.93,1111122 
SCCF RECON,ioos:station:SCCF:16:1,2010-12-11T07:00:00Z,26.4345,-81.9647,2.7,7.92,1111122 
SCCF RECON,ioos:station:SCCF:16:1,2010-12-11T08:00:00Z,26.4345,-81.9647,2.701,7.78,1111122 
SCCF RECON,ioos:station:SCCF:16:1,2010-12-11T09:00:00Z,26.4345,-81.9647,2.674,7.73,1111122 
SCCF RECON,ioos:station:SCCF:16:1,2010-12-11T10:00:00Z,26.4345,-81.9647,2.596,7.65,1111122 
SCCF RECON,ioos:station:SCCF:16:1,2010-12-11T11:00:00Z,26.4345,-81.9647,2.499,7.61,1111122 
SCCF RECON,ioos:station:SCCF:16:1,2010-12-11T12:00:00Z,26.4345,-81.9647,2.418,7.74,1111122 
SCCF RECON,ioos:station:SCCF:16:1,2010-12-11T13:00:00Z,26.4345,-81.9647,2.272,7.75,1111122 
SCCF RECON,ioos:station:SCCF:16:1,2010-12-11T14:00:00Z,26.4345,-81.9647,2.17,7.73,1111122 
SCCF RECON,ioos:station:SCCF:16:1,2010-12-11T15:00:00Z,26.4345,-81.9647,2.163,7.76,1111122 
SCCF RECON,ioos:station:SCCF:16:1,2010-12-11T16:00:00Z,26.4345,-81.9647,2.261,7.79,1111122 
SCCF RECON,ioos:station:SCCF:16:1,2010-12-11T17:00:00Z,26.4345,-81.9647,2.336,7.77,1111122 
SCCF RECON,ioos:station:SCCF:16:1,2010-12-11T18:00:00Z,26.4345,-81.9647,2.443,7.81,1111122 
SCCF RECON,ioos:station:SCCF:16:1,2010-12-11T19:00:00Z,26.4345,-81.9647,2.522,8.07,1111122 